Ludington, MI

8:18 AM EST on November 19, 2019 (GMT -0500)
Mason County

Weather History for KLDM - September, 2019

Change the Weather History Date:

Friday, September 6, 2019

  Actual Average Record
Temperature  
Mean Temperature 60 °F -  
Max Temperature 64 °F 75 °F 90 °F (1954)
Min Temperature 56 °F 53 °F 33 °F (2011)
Degree Days  
Heating Degree Days 5    
Growing Degree Days 10 (Base 50)    
Moisture  
Dew Point 58 °F    
Average Humidity 93    
Maximum Humidity 96    
Minimum Humidity 83    
Precipitation  
Precipitation 0.21 in - - ()
Sea Level Pressure  
Sea Level Pressure 29.92 in    
Wind  
Wind Speed 4 mph (NE)    
Max Wind Speed 15 mph    
Max Gust Speed 21 mph    
Visibility 8 miles    
Events Rain    
Averages and records for this station are not official NWS values.
T = Trace of Precipitation, MM = Missing Value Source: NWS Daily Summary

Daily Weather History Graph

Daily Weather History Graph

Search for Another Location

Airport or City:

Astronomy

Sep. 06, 2019 Rise Set
Actual Time 7:14 AM EDT 8:12 PM EDT
Civil Twilight 6:44 AM EDT 8:42 PM EDT
Nautical Twilight 6:09 AM EDT 9:17 PM EDT
Astronomical Twilight 5:32 AM EDT 9:53 PM EDT
Moon 3:38 PM EDT (9/6) 12:15 AM EDT (9/6)
Length of Visible Light 13h 57m
Length of Day
12h 58m
First Quarter, 55% of the Moon is Illuminated
Sep 6
First Quarter
Sep 14
Full
Sep 21
Last Quarter
Sep 28
New
Oct 5
First Quarter

Hourly Weather History & Observations

Time (EDT) Temp. Dew Point Humidity Pressure Visibility Wind Dir Wind Speed Gust Speed Precip Events Conditions
12:15 AM 57.7 °F 55.9 °F 94% 30.00 in 10.0 mi Calm Calm - N/A   Overcast
12:39 AM 58.1 °F 55.6 °F 91% 30.00 in 10.0 mi Calm Calm - N/A   Overcast
12:56 AM 56.8 °F 55.6 °F 96% 30.00 in 10.0 mi Calm Calm - N/A   Overcast
1:15 AM 57.2 °F 55.8 °F 95% 29.99 in 10.0 mi Calm Calm - N/A   Overcast
1:16 AM 57.2 °F 55.8 °F 95% 29.99 in 10.0 mi Calm Calm - N/A   Overcast
1:35 AM 57.2 °F 55.8 °F 95% 29.99 in 10.0 mi East 3.5 mph - N/A   Overcast
1:36 AM 57.2 °F 55.8 °F 95% 29.99 in 10.0 mi East 3.5 mph - N/A   Overcast
1:55 AM 57.2 °F 55.9 °F 96% 29.99 in 10.0 mi East 3.5 mph - N/A   Overcast
2:00 AM 57.2 °F 55.9 °F 96% 29.99 in 10.0 mi East 3.5 mph - N/A   Overcast
2:18 AM 57.2 °F 55.8 °F 95% 29.97 in 10.0 mi East 3.5 mph - N/A   Overcast
2:36 AM 57.6 °F 55.8 °F 94% 29.96 in 10.0 mi ESE 4.6 mph - N/A   Overcast
2:55 AM 57.6 °F 55.4 °F 92% 29.95 in 10.0 mi SE 4.6 mph - N/A   Overcast
3:15 AM 57.6 °F 55.4 °F 92% 29.94 in 10.0 mi ESE 3.5 mph - N/A   Overcast
3:16 AM 57.6 °F 55.4 °F 92% 29.94 in 10.0 mi ESE 3.5 mph - N/A   Overcast
3:39 AM 57.7 °F 55.6 °F 92% 29.92 in 10.0 mi SE 5.8 mph - N/A   Mostly Cloudy
3:57 AM 57.4 °F 55.8 °F 94% 29.92 in 10.0 mi SE 3.5 mph - N/A   Overcast
4:15 AM 57.6 °F 56.1 °F 95% 29.92 in 10.0 mi SE 5.8 mph - N/A   Overcast
4:35 AM 57.6 °F 56.3 °F 96% 29.91 in 10.0 mi SE 5.8 mph - N/A   Overcast
4:55 AM 57.7 °F 56.3 °F 95% 29.90 in 10.0 mi SE 4.6 mph - N/A   Overcast
4:59 AM 57.7 °F 56.3 °F 95% 29.90 in 10.0 mi SE 4.6 mph - N/A Rain Light Rain
5:17 AM 58.1 °F 56.3 °F 94% 29.88 in 10.0 mi SE 4.6 mph - N/A   Overcast
5:35 AM 58.1 °F 56.3 °F 94% 29.89 in 10.0 mi SE 4.6 mph - N/A   Overcast
5:55 AM 58.1 °F 56.7 °F 95% 29.88 in 10.0 mi ESE 3.5 mph - N/A   Drizzle
5:56 AM 58.1 °F 56.7 °F 95% 29.88 in 10.0 mi ESE 3.5 mph - N/A   Light Drizzle
6:15 AM 58.3 °F 57.2 °F 96% 29.87 in 10.0 mi SE 4.6 mph - N/A   Light Drizzle
6:20 AM 58.3 °F 57.0 °F 96% 29.87 in 10.0 mi SE 4.6 mph - N/A   Overcast
6:38 AM 58.5 °F 57.2 °F 96% 29.86 in 10.0 mi SE 3.5 mph - N/A Rain Light Rain
6:56 AM 58.5 °F 57.2 °F 96% 29.85 in 10.0 mi SE 5.8 mph - N/A Rain Rain
7:15 AM 59.0 °F 57.6 °F 95% 29.84 in 10.0 mi SE 6.9 mph - N/A   Overcast
7:16 AM 59.0 °F 57.6 °F 95% 29.84 in 10.0 mi SE 5.8 mph - N/A   Overcast
7:35 AM 59.0 °F 57.9 °F 96% 29.84 in 10.0 mi SSE 4.6 mph - 0.01 in   Overcast
7:59 AM 58.6 °F 57.4 °F 96% 29.87 in 10.0 mi NNE 8.1 mph - 0.01 in   Overcast
8:17 AM 58.5 °F 57.2 °F 96% 29.86 in 5.0 mi SE 3.5 mph - 0.08 in Rain Rain
8:35 AM 59.0 °F 57.6 °F 95% 29.85 in 3.0 mi East 3.5 mph - 0.09 in Rain Light Rain
8:36 AM 59.0 °F 57.7 °F 96% 29.85 in 3.0 mi Calm Calm - 0.09 in Rain Light Rain
9:15 AM 58.6 °F 57.4 °F 96% 29.85 in 2.0 mi East 10.4 mph - 0.10 in Rain Light Rain
9:20 AM 58.5 °F 57.4 °F 96% 29.85 in 3.0 mi East 6.9 mph - 0.10 in Rain Light Rain
9:38 AM 59.0 °F 57.7 °F 96% 29.85 in 5.0 mi ESE 4.6 mph - 0.11 in   Overcast
9:56 AM 59.7 °F 58.3 °F 95% 29.84 in 5.0 mi SE 6.9 mph - 0.11 in   Overcast
10:15 AM 60.4 °F 59.2 °F 96% 29.84 in 5.0 mi SE 4.6 mph - N/A   Overcast
10:16 AM 60.4 °F 59.2 °F 96% 29.84 in 7.0 mi SE 4.6 mph - N/A   Overcast
10:35 AM 61.5 °F 60.3 °F 96% 29.84 in 7.0 mi SE 5.8 mph - N/A   Overcast
10:36 AM 61.7 °F 60.3 °F 95% 29.84 in 7.0 mi SSE 4.6 mph - N/A   Overcast
10:59 AM 62.8 °F 61.0 °F 94% 29.84 in 7.0 mi SSE 3.5 mph - N/A   Overcast
11:17 AM 63.7 °F 61.5 °F 93% 29.84 in 10.0 mi Calm Calm - N/A   Overcast
11:35 AM 63.5 °F 61.3 °F 93% 29.85 in 10.0 mi Calm Calm - N/A   Overcast
11:36 AM 63.7 °F 61.3 °F 92% 29.85 in 10.0 mi Calm Calm - N/A   Overcast
11:55 AM 64.6 °F 62.2 °F 92% 29.86 in 7.0 mi Calm Calm - N/A   Overcast
11:56 AM 64.6 °F 62.4 °F 93% 29.86 in 7.0 mi NNW 3.5 mph - N/A   Overcast
12:15 PM 64.8 °F 62.2 °F 92% 29.86 in 7.0 mi Calm Calm - N/A   Overcast
12:38 PM 64.4 °F 62.2 °F 93% 29.86 in 7.0 mi NNW 6.9 mph - N/A   Overcast
12:56 PM 64.0 °F 61.7 °F 92% 29.87 in 10.0 mi NNW 10.4 mph - N/A   Overcast
1:15 PM 64.4 °F 61.9 °F 92% 29.86 in 7.0 mi North 11.5 mph 16.1 mph N/A   Overcast
1:16 PM 64.4 °F 61.9 °F 92% 29.86 in 7.0 mi North 10.4 mph 16.1 mph N/A   Overcast
1:35 PM 64.9 °F 62.2 °F 91% 29.87 in 7.0 mi North 10.4 mph - N/A   Overcast
1:36 PM 64.9 °F 62.4 °F 92% 29.87 in 7.0 mi NNW 9.2 mph - N/A   Overcast
1:59 PM 64.9 °F 62.4 °F 92% 29.88 in 7.0 mi North 11.5 mph - N/A   Overcast
2:17 PM 64.4 °F 62.4 °F 93% 29.88 in 4.0 mi North 10.4 mph - N/A   Overcast
2:35 PM 63.7 °F 62.2 °F 95% 29.89 in 2.5 mi North 10.4 mph 17.3 mph N/A   Overcast
2:55 PM 63.9 °F 62.6 °F 96% 29.90 in 3.0 mi North 6.9 mph - N/A   Overcast
2:56 PM 63.9 °F 62.6 °F 96% 29.90 in 3.0 mi North 8.1 mph - N/A   Overcast
3:15 PM 63.7 °F 62.4 °F 96% 29.89 in 4.0 mi North 8.1 mph - N/A   Overcast
3:20 PM 63.9 °F 62.4 °F 95% 29.90 in 3.0 mi North 10.4 mph - N/A   Overcast
3:38 PM 63.9 °F 62.6 °F 96% 29.90 in 1.8 mi North 8.1 mph - N/A   Overcast
3:56 PM 63.5 °F 62.2 °F 96% 29.90 in 1.8 mi North 6.9 mph - N/A   Overcast
4:15 PM 63.9 °F 62.6 °F 96% 29.91 in 2.0 mi North 6.9 mph - N/A   Overcast
4:35 PM 64.0 °F 62.8 °F 96% 29.91 in 3.0 mi North 9.2 mph - N/A   Overcast
4:59 PM 63.9 °F 62.2 °F 94% 29.91 in 7.0 mi North 10.4 mph - N/A   Overcast
5:17 PM 63.7 °F 61.9 °F 94% 29.92 in 7.0 mi North 11.5 mph 20.7 mph N/A Rain Rain
5:35 PM 62.8 °F 60.8 °F 93% 29.93 in 5.0 mi North 15.0 mph 20.7 mph N/A   Light Drizzle
5:36 PM 62.8 °F 60.6 °F 93% 29.93 in 5.0 mi North 12.7 mph 20.7 mph N/A   Light Drizzle
5:55 PM 62.6 °F 60.3 °F 92% 29.94 in 10.0 mi North 12.7 mph - N/A   Overcast
6:15 PM 62.8 °F 59.9 °F 90% 29.95 in 10.0 mi North 12.7 mph 19.6 mph N/A   Overcast
6:38 PM 62.6 °F 59.0 °F 88% 29.96 in 10.0 mi North 12.7 mph 17.3 mph N/A   Overcast
6:56 PM 62.2 °F 58.5 °F 87% 29.96 in 10.0 mi North 13.8 mph 17.3 mph N/A   Overcast
7:15 PM 62.4 °F 57.7 °F 85% 29.97 in 10.0 mi North 10.4 mph 17.3 mph N/A   Overcast
7:35 PM 62.6 °F 57.4 °F 83% 29.97 in 10.0 mi North 10.4 mph 18.4 mph N/A   Overcast
7:59 PM 62.1 °F 57.0 °F 84% 29.98 in 10.0 mi North 9.2 mph - N/A   Overcast
8:17 PM 61.9 °F 57.2 °F 85% 29.98 in 10.0 mi North 9.2 mph - N/A   Overcast
8:36 PM 61.7 °F 57.2 °F 85% 29.99 in 10.0 mi North 6.9 mph 16.1 mph N/A   Overcast
8:55 PM 61.7 °F 57.2 °F 85% 29.99 in 10.0 mi North 9.2 mph - N/A   Overcast
9:15 PM 61.7 °F 56.8 °F 84% 30.00 in 10.0 mi North 9.2 mph 16.1 mph N/A   Overcast
9:38 PM 61.7 °F 56.5 °F 83% 30.00 in 10.0 mi North 8.1 mph - N/A   Overcast
9:56 PM 61.5 °F 56.3 °F 83% 30.01 in 10.0 mi NNE 5.8 mph - N/A   Overcast
10:15 PM 60.8 °F 55.6 °F 83% 30.01 in 10.0 mi North 6.9 mph - N/A   Mostly Cloudy
10:35 PM 59.7 °F 55.6 °F 86% 30.01 in 10.0 mi North 6.9 mph - N/A   Mostly Cloudy
10:59 PM 59.4 °F 55.2 °F 86% 30.01 in 10.0 mi North 5.8 mph - N/A   Scattered Clouds
11:17 PM 59.0 °F 55.0 °F 87% 30.02 in 10.0 mi North 5.8 mph - N/A   Clear
11:35 PM 58.6 °F 54.7 °F 87% 30.02 in 10.0 mi North 4.6 mph - N/A   Clear
11:36 PM 58.5 °F 54.5 °F 87% 30.02 in 10.0 mi North 3.5 mph - N/A   Clear
11:55 PM 57.4 °F 54.7 °F 91% 30.02 in 10.0 mi Calm Calm - N/A   Clear
11:56 PM 57.4 °F 54.5 °F 90% 30.02 in 10.0 mi Calm Calm - N/A   Clear